When you browse on this site, cookies collect data to enhance your experience and personalize the content and advertising you see.
Visit our Privacy Policy to learn more. By continuing to use the site, you agree to this use of cookies and data.

Previsão horária em Abay (Tyulkubasskiy rayon)

Hoje, 21 Setembro, Segunda-feira

Tempo Temperatura Precipitação Vento Pressão Humidade
00:00 +18°C° 0 mm 2 m/s 705 mmHg 20%
01:00 +18°C° 0 mm 2 m/s 705 mmHg 19%
02:00 +18°C° 0 mm 2 m/s 704 mmHg 18%
03:00 +17°C° 0 mm 2 m/s 705 mmHg 18%
04:00 +18°C° 0 mm 1 m/s 705 mmHg 18%
05:00 +18°C° 0 mm 1 m/s 705 mmHg 17%
06:00 +19°C° 0 mm 1 m/s 706 mmHg 17%
07:00 +19°C° 0 mm 2 m/s 706 mmHg 17%
08:00 +20°C° 0 mm 2 m/s 707 mmHg 16%
09:00 +21°C° 0 mm 3 m/s 707 mmHg 16%
10:00 +22°C° 0 mm 4 m/s 707 mmHg 16%
11:00 +23°C° 0 mm 5 m/s 707 mmHg 16%
12:00 +25°C° 0 mm 5 m/s 707 mmHg 17%
13:00 +24°C° 0 mm 6 m/s 707 mmHg 17%
14:00 +26°C° 0 mm 7 m/s 707 mmHg 17%
15:00 +24°C° 0 mm 6 m/s 707 mmHg 18%
16:00 +23°C° 0 mm 6 m/s 707 mmHg 18%
17:00 +22°C° 0 mm 6 m/s 707 mmHg 19%
18:00 +20°C° 0 mm 5 m/s 707 mmHg 25%
19:00 +19°C° 0 mm 3 m/s 707 mmHg 31%
20:00 +18°C° 0 mm 1 m/s 707 mmHg 37%
21:00 +16°C° 0 mm 1 m/s 708 mmHg 39%
22:00 +16°C° 0 mm 1 m/s 708 mmHg 41%
23:00 +15°C° 0 mm 1 m/s 708 mmHg 44%

Amanhã, 22 Setembro, Terça-feira

Tempo Temperatura Precipitação Vento Pressão Humidade
00:00 +15°C° 0 mm 1 m/s 708 mmHg 46%
01:00 +13°C° 0 mm 0 m/s 708 mmHg 48%
02:00 +12°C° 0 mm 0 m/s 708 mmHg 50%
03:00 +12°C° 0 mm 0 m/s 708 mmHg 51%
04:00 +13°C° 0 mm 1 m/s 708 mmHg 53%
05:00 +12°C° 0 mm 1 m/s 708 mmHg 55%
06:00 +13°C° 0 mm 1 m/s 708 mmHg 51%
07:00 +14°C° 0 mm 1 m/s 709 mmHg 48%
08:00 +15°C° 0 mm 1 m/s 709 mmHg 45%
09:00 +17°C° 0 mm 2 m/s 709 mmHg 41%
10:00 +18°C° 0 mm 3 m/s 709 mmHg 37%
11:00 +20°C° 0 mm 4 m/s 710 mmHg 33%
12:00 +20°C° 0 mm 5 m/s 709 mmHg 30%
13:00 +21°C° 0 mm 5 m/s 709 mmHg 28%
14:00 +21°C° 0 mm 6 m/s 709 mmHg 26%
15:00 +21°C° 0 mm 5 m/s 709 mmHg 24%
16:00 +20°C° 0 mm 4 m/s 709 mmHg 22%
17:00 +19°C° 0 mm 3 m/s 709 mmHg 21%
18:00 +18°C° 0 mm 2 m/s 709 mmHg 22%
19:00 +16°C° 0 mm 1 m/s 709 mmHg 23%
20:00 +14°C° 0 mm 1 m/s 709 mmHg 24%
21:00 +13°C° 0 mm 1 m/s 709 mmHg 26%
22:00 +13°C° 0 mm 1 m/s 709 mmHg 28%
23:00 +12°C° 0 mm 1 m/s 709 mmHg 30%

Depois de amanhã, 23 Setembro, Quarta-feira

Tempo Temperatura Precipitação Vento Pressão Humidade
00:00 +12°C° 0 mm 1 m/s 708 mmHg 33%
01:00 +12°C° 0 mm 2 m/s 708 mmHg 35%
02:00 +10°C° 0 mm 2 m/s 708 mmHg 37%
03:00 +10°C° 0 mm 2 m/s 708 mmHg 37%
04:00 +10°C° 0 mm 2 m/s 708 mmHg 37%
05:00 +10°C° 0 mm 2 m/s 708 mmHg 37%
06:00 +12°C° 0 mm 2 m/s 708 mmHg 35%
07:00 +13°C° 0 mm 1 m/s 709 mmHg 33%
08:00 +14°C° 0 mm 1 m/s 709 mmHg 31%
09:00 +16°C° 0 mm 1 m/s 709 mmHg 27%
10:00 +19°C° 0 mm 1 m/s 709 mmHg 24%
11:00 +20°C° 0 mm 2 m/s 709 mmHg 20%
12:00 +20°C° 0 mm 2 m/s 709 mmHg 19%
13:00 +21°C° 0 mm 3 m/s 709 mmHg 17%
14:00 +22°C° 0 mm 4 m/s 709 mmHg 15%
15:00 +22°C° 0 mm 4 m/s 708 mmHg 16%
16:00 +21°C° 0 mm 3 m/s 708 mmHg 17%
17:00 +20°C° 0 mm 3 m/s 708 mmHg 17%
18:00 +19°C° 0 mm 2 m/s 708 mmHg 21%
19:00 +17°C° 0 mm 2 m/s 708 mmHg 24%
20:00 +15°C° 0 mm 1 m/s 708 mmHg 27%
21:00 +14°C° 0 mm 1 m/s 708 mmHg 28%
22:00 +14°C° 0 mm 1 m/s 707 mmHg 29%
23:00 +13°C° 0 mm 1 m/s 707 mmHg 31%

24 Setembro, Quinta-feira

Tempo Temperatura Precipitação Vento Pressão Humidade
00:00 +13°C° 0 mm 1 m/s 707 mmHg 31%
01:00 +13°C° 0 mm 1 m/s 707 mmHg 32%
02:00 +12°C° 0 mm 1 m/s 707 mmHg 33%
03:00 +12°C° 0 mm 1 m/s 707 mmHg 34%
04:00 +12°C° 0 mm 1 m/s 707 mmHg 35%
05:00 +11°C° 0 mm 1 m/s 707 mmHg 35%
06:00 +13°C° 0 mm 1 m/s 708 mmHg 33%
07:00 +14°C° 0 mm 1 m/s 708 mmHg 30%
08:00 +15°C° 0 mm 1 m/s 709 mmHg 28%
09:00 +17°C° 0 mm 2 m/s 709 mmHg 25%
10:00 +19°C° 0 mm 2 m/s 709 mmHg 22%
11:00 +20°C° 0 mm 3 m/s 709 mmHg 19%
12:00 +21°C° 0 mm 3 m/s 709 mmHg 19%
13:00 +22°C° 0 mm 3 m/s 709 mmHg 18%
14:00 +24°C° 0 mm 3 m/s 709 mmHg 17%
15:00 +24°C° 0 mm 3 m/s 709 mmHg 18%
16:00 +23°C° 0 mm 2 m/s 709 mmHg 19%
17:00 +23°C° 0 mm 2 m/s 709 mmHg 20%
18:00 +20°C° 0 mm 2 m/s 709 mmHg 24%
19:00 +18°C° 0 mm 2 m/s 708 mmHg 28%
20:00 +17°C° 0 mm 3 m/s 708 mmHg 33%
21:00 +16°C° 0 mm 3 m/s 708 mmHg 37%
22:00 +14°C° 0 mm 3 m/s 708 mmHg 42%
23:00 +14°C° 0 mm 4 m/s 707 mmHg 46%

25 Setembro, Sexta-feira

Tempo Temperatura Precipitação Vento Pressão Humidade
00:00 +13°C° 0 mm 4 m/s 707 mmHg 48%
01:00 +13°C° 0 mm 4 m/s 707 mmHg 50%
02:00 +12°C° 0 mm 3 m/s 706 mmHg 52%
03:00 +12°C° 0 mm 3 m/s 706 mmHg 53%
04:00 +12°C° 0 mm 4 m/s 706 mmHg 54%
05:00 +12°C° 0 mm 4 m/s 706 mmHg 55%
06:00 +13°C° 0 mm 4 m/s 706 mmHg 52%
07:00 +14°C° 0 mm 4 m/s 706 mmHg 48%
08:00 +15°C° 0 mm 4 m/s 706 mmHg 45%
09:00 +18°C° 0 mm 4 m/s 706 mmHg 39%
10:00 +20°C° 0 mm 4 m/s 706 mmHg 34%
11:00 +22°C° 0 mm 5 m/s 707 mmHg 28%
12:00 +23°C° 0 mm 5 m/s 706 mmHg 27%
13:00 +23°C° 0 mm 5 m/s 706 mmHg 26%
14:00 +25°C° 0 mm 5 m/s 706 mmHg 24%
15:00 +23°C° 0 mm 6 m/s 706 mmHg 26%
16:00 +22°C° 0 mm 7 m/s 706 mmHg 27%
17:00 +21°C° 0 mm 7 m/s 705 mmHg 28%
18:00 +18°C° 0 mm 7 m/s 705 mmHg 29%
19:00 +16°C° 0 mm 7 m/s 705 mmHg 30%
20:00 +14°C° 0 mm 7 m/s 705 mmHg 31%
21:00 +13°C° 0 mm 6 m/s 705 mmHg 33%
22:00 +11°C° 0 mm 6 m/s 704 mmHg 35%
23:00 +10°C° 0 mm 6 m/s 704 mmHg 37%

26 Setembro, Sábado

Tempo Temperatura Precipitação Vento Pressão Humidade
00:00 +10°C° 0 mm 6 m/s 704 mmHg 39%
01:00 +9°C° 0 mm 6 m/s 704 mmHg 41%
02:00 +8°C° 0 mm 5 m/s 704 mmHg 43%
03:00 +8°C° 0 mm 5 m/s 704 mmHg 43%
04:00 +8°C° 0 mm 6 m/s 704 mmHg 42%
05:00 +7°C° 0 mm 6 m/s 704 mmHg 42%
06:00 +8°C° 0 mm 6 m/s 704 mmHg 41%
07:00 +9°C° 0 mm 6 m/s 704 mmHg 40%
08:00 +9°C° 0 mm 6 m/s 705 mmHg 38%
09:00 +13°C° 0 mm 6 m/s 705 mmHg 35%
10:00 +15°C° 0 mm 6 m/s 705 mmHg 31%
11:00 +17°C° 0 mm 6 m/s 705 mmHg 27%
12:00 +18°C° 0 mm 7 m/s 705 mmHg 26%
13:00 +18°C° 0 mm 7 m/s 705 mmHg 25%
14:00 +20°C° 0 mm 7 m/s 705 mmHg 24%
15:00 +18°C° 0 mm 7 m/s 705 mmHg 25%
16:00 +18°C° 0 mm 7 m/s 705 mmHg 26%
17:00 +17°C° 0 mm 7 m/s 705 mmHg 27%
18:00 +16°C° 0 mm 7 m/s 705 mmHg 29%
19:00 +14°C° 0 mm 7 m/s 705 mmHg 31%
20:00 +12°C° 0 mm 7 m/s 705 mmHg 33%
21:00 +11°C° 0 mm 7 m/s 705 mmHg 34%
22:00 +10°C° 0 mm 7 m/s 705 mmHg 35%
23:00 +9°C° 0 mm 6 m/s 704 mmHg 37%
Mostrar mais